Location: Aiyede
(8.4833°N, 4.4500°E)
Time: 17:39:27
(UTC+00:00)

Envisat - Visible Passes

Search period start: 25 November 2020 00:00
Search period end: 05 December 2020 00:00
Orbit: 764 x 766 km, 98.1° (Epoch: 25 November)

Date Brightness Start Highest point End Pass type
(mag) Time Alt. Az. Time Alt. Az. Time Alt. Az.
25 Nov 6.1 04:16:35 10° ENE 04:19:12 14° E 04:21:49 10° SE visible
26 Nov 3.1 05:16:16 10° NNE 05:21:19 84° ESE 05:26:24 10° S visible
26 Nov 5.5 17:52:48 10° SSW 17:57:00 26° W 18:01:11 10° NW visible
27 Nov 5.2 04:40:13 10° NE 04:44:35 29° E 04:48:58 10° SSE visible
28 Nov 6.3 18:20:18 10° SW 18:22:23 12° W 18:24:28 10° WNW visible
29 Nov 3.6 05:04:57 10° NNE 05:09:58 62° ESE 05:14:58 10° S visible
29 Nov 4.9 17:41:01 10° SSW 17:45:38 36° W 17:50:14 10° NW visible
30 Nov 5.7 04:29:23 10° NE 04:33:13 22° E 04:37:03 10° SSE visible
01 Dec 6.0 18:07:44 10° SW 18:11:01 17° W 18:14:17 10° WNW visible
02 Dec 4.3 04:53:47 10° NNE 04:58:36 44° ESE 05:03:25 10° S visible
03 Dec 6.0 04:18:49 10° ENE 04:21:51 16° E 04:24:51 10° SE visible
04 Dec 3.0 05:18:53 10° N 05:23:58 87° WNW 05:29:02 10° SSW visible
04 Dec 5.7 17:55:38 10° SSW 17:59:38 24° W 18:03:38 10° NW visible
